Location: Chrome
(40.5765°N, 74.2163°W)
Time: 04:20:01
(UTC+00:00)

Cosmos 2278 Rocket - Pass Details

Date: 06 December 2019
Orbit: 843 x 844 km, 71.0° (Epoch: 19 January)

Event Time Altitude Azimuth Distance (km) Brightness Sun altitude
Rises 23:09:53 0° 336° (NNW) 3,408 5.5 -18.4°
Reaches altitude 10° 23:12:20 10° 336° (NNW) 2,469 4.7 -18.9°
Maximum altitude 23:18:01 86° 250° (WSW) 850 2.2 -19.9°
Drops below altitude 10° 23:23:39 10° 160° (SSE) 2,453 4.5 -21.0°
Sets 23:26:05 0° 160° (SSE) 3,384 5.3 -21.4°
